|   |  | Asteroid 2008 SE209
					
					
					
					
						
					
					
						
							(Preview) 
						
							
								Asteroid Discovered by Madisonville Teacher Named for High School   Space has proven to be the final frontier for Madisonville High, the official name given earlier this month to a Main Belt asteroid discovered by Madisonville High School science teacher Denise Rothrock and two of her students.  Th... | Blobrana | 1 |  |  | 
		
			
			
				
				
					|   |  | Asteroid 2012 XQ2
					
					
					
					
						
					
					
						
							(Preview) 
						
							
								Orbital elements:
2012 XQ2                                                 Earth MOID = 0.0417 AU
Epoch 2012 Sept. 30.0 TT = JDT 2456200.5                MPC
M 336.76011              (2000.0)            P               Q
n   0.54832232     Peri.  158.48243     +0.66918961     -0.72290841
a   1.4783551      Node   249.05955     +0.65207871     +0.68228346
e   0.3135416      Incl.   10.61322     +0.35634060     +0.10905375
P   1.80           H   26.... | Blobrana | 0 |  |  | 
		
			
			
				
				
					|   |  | Asteroid 2012 XH
					
					
					
					
						
					
					
						
							(Preview) 
						
							
								Orbital elements:
2012 XH                                                  Earth MOID = 0.0026 AU
Epoch 2012 Sept. 30.0 TT = JDT 2456200.5                MPC
M 345.41455              (2000.0)            P               Q
n   0.46525822     Peri.  330.80714     +0.83635010     -0.54808700
a   1.6494533      Node    62.43275     +0.50531866     +0.76306209
e   0.4076502      Incl.    0.70556     +0.21253605     +0.34254474
P   2.12           H   25.7           G   0... | Blobrana | 0 |  |  | 
		
			
			
				
				
					|   |  | Asteroid 2012 XG
					
					
					
					
						
					
					
						
							(Preview) 
						
							
								Orbital elements:
2012 XG                                                  Earth MOID = 0.0909 AU
Epoch 2012 Sept. 30.0 TT = JDT 2456200.5                MPC
M   8.97962              (2000.0)            P               Q
n   0.77450796     Peri.  277.99570     +0.90820441     +0.19406681
a   1.1743173      Node    71.42714     +0.00874087     +0.87700902
e   0.2121513      Incl.   23.02838     -0.41843559     +0.43953754
P   1.27           H   24.1           G   0.... | Blobrana | 0 |  |  | 
		
			
			
				
				
					|   |  | Asteroid 2012 XC
					
					
					
					
						
					
					
						
							(Preview) 
						
							
								Orbital elements:
2012 XC                                                  Earth MOID = 0.0061 AU
Epoch 2012 Sept. 30.0 TT = JDT 2456200.5                MPC
M 353.93160              (2000.0)            P               Q
n   0.39516176     Peri.  294.51038     +0.99722566     -0.03374303
a   1.8391597      Node    67.48007     +0.05868933     +0.90469888
e   0.5612020      Incl.    4.11896     -0.04578796     +0.42471325
P   2.49           H   25.3           G   0... | Blobrana | 0 |  |  | 
		
			
			
				
				
					|   |  | Asteroid 2005 VE7
					
					
					
					
						
					
					
						
							(Preview) 
						
							
								Orbital elements:
2005 VE7                                                 Earth MOID = 0.1206 AU
Epoch 2012 Sept. 30.0 TT = JDT 2456200.5                MPC
M   0.27794              (2000.0)            P               Q
n   0.27677814     Peri.   14.03406     +0.52305846     +0.84284214
a   2.3319265      Node   287.64136     -0.79422255     +0.42811963
e   0.7158339      Incl.    7.63403     -0.30922546     +0.32608391
P   3.56           H   18.4           G   0.... | Blobrana | 0 |  |  | 
		
			
			
				
				
					|   |  | Trojan Asteroids
					
					
					
					
						
					
					
						
							(Preview) 
						
							
								Title: Detection of inner Solar System Trojan Asteroids by Gaia  Authors: M. Todd, P. Tanga, D. M. Coward, M. G. Zadnik    The Gaia satellite, planned for launch by the European Space Agency (ESA) in 2013, is the next generation astrometry mission following Hipparcos. While mapping the whole sky, the G... | Blobrana | 0 |  |  | 
		
			
			
				
				
					|   |  | Asteroid 2012 XA
					
					
					
					
						
					
					
						
							(Preview) 
						
							
								Orbital elements:
2012 XA                                                  Earth MOID = 0.0379 AU
Epoch 2012 Sept. 30.0 TT = JDT 2456200.5                MPC
M 304.88550              (2000.0)            P               Q
n   0.61555946     Peri.  208.73926     -0.13762293     -0.98560233
a   1.3686405      Node   249.31490     +0.92765177     -0.09349916
e   0.2649689      Incl.    6.02673     +0.34716296     -0.14087568
P   1.60           H   25.0           G... | Blobrana | 1 |  |  | 
		
			
			
				
				
					|   |  | Asteroid 2012 WE33
					
					
					
					
						
					
					
						
							(Preview) 
						
							
								Orbital elements:
2012 WE33                                                Earth MOID = 0.0724 AU
Epoch 2012 Sept. 30.0 TT = JDT 2456200.5                MPC
M 294.39548              (2000.0)            P               Q
n   0.67597431     Peri.   36.99098     -0.21635853     -0.89606953
a   1.2858271      Node    68.50972     +0.76602382     -0.40195511
e   0.2036898      Incl.   24.61883     +0.60530695     +0.18839186
P   1.46           H   24.1... | Blobrana | 1 |  |  | 
		
			
			
				
				
					|   |  | Asteroid 2012 XB
					
					
					
					
						
					
					
						
							(Preview) 
						
							
								Orbital elements:
2012 XB                                                  Earth MOID = 0.0490 AU
Epoch 2012 Sept. 30.0 TT = JDT 2456200.5                MPC
M 324.53870              (2000.0)            P               Q
n   0.75135314     Peri.  163.81081     +0.58261491     -0.79155214
a   1.1983214      Node   250.19503     +0.72225764     +0.60828833
e   0.1401226      Incl.   11.30301     +0.37269795     +0.05857072
P   1.31           H   25.8... | Blobrana | 1 |  |  | 
		
			
			
				
				
					|   |  | Asteroid (352) Gisela
					
					
					
					
						
					
					
						
							(Preview) 
						
							
								Asteroid (352) Gisela is at Opposition on the 2nd December, 2012. Magnitude: 11.3 Distance to Earth: 0.936 au  Distance to Sun: 1.922 au | Blobrana | 0 |  |  | 
		
			
			
				
				
					|   |  | Asteroid 2012 WG32
					
					
					
					
						
					
					
						
							(Preview) 
						
							
								Orbital elements:
2012 WG32                                                Earth MOID = 0.0736 AU
Epoch 2012 Sept. 30.0 TT = JDT 2456200.5                MPC
M  50.09377              (2000.0)            P               Q
n   0.39327078     Peri.  300.30018     +0.82331131     +0.55056830
a   1.8450505      Node    27.03325     -0.35767299     +0.69198932
e   0.4985190      Incl.   17.67022     -0.44071364     +0.46693182
P   2.51           H   17.8... | Blobrana | 0 |  |  | 
		
			
			
				
				
					|   |  | Asteroid 2012 WB25
					
					
					
					
						
					
					
						
							(Preview) 
						
							
								Orbital elements:
2012 WB25                                                Earth MOID = 0.0765 AU
Epoch 2012 Sept. 30.0 TT = JDT 2456200.5                MPC
M 291.53792              (2000.0)            P               Q
n   0.36500009     Peri.  137.06420     -0.97434558     +0.18959372
a   1.9391321      Node    54.25434     -0.22464996     -0.85172249
e   0.6245843      Incl.    8.59273     +0.01353070     -0.48849055
P   2.70           H   19.1... | Blobrana | 0 |  |  | 
		
			
			
				
				
					|   |  | Asteroid 2010 VW98
					
					
					
					
						
					
					
						
							(Preview) 
						
							
								Orbital elements:
2010 VW98                                                Earth MOID = 0.1219 AU
Epoch 2012 Sept. 30.0 TT = JDT 2456200.5                MPC
M 316.99622              (2000.0)            P               Q
n   0.48841025     Peri.  220.17244     -0.03338686     -0.98544119
a   1.5969067      Node   232.39695     +0.96246816     +0.01324834
e   0.3311588      Incl.   12.14693     +0.26933318     -0.16949969
P   2.02           H   22... | Blobrana | 1 |  |  | 
		
			
			
				
				
					|   |  | Asteroid 2012 WM28
					
					
					
					
						
					
					
						
							(Preview) 
						
							
								Orbital elements:
2012 WM28                                                Earth MOID = 0.0323 AU
Epoch 2012 Sept. 30.0 TT = JDT 2456200.5                MPC
M 305.45691              (2000.0)            P               Q
n   0.73605283     Peri.   15.06251     +0.14577138     -0.97650584
a   1.2148707      Node    66.76331     +0.88889344     +0.05885585
e   0.1656243      Incl.    9.94568     +0.43430306     +0.20729769
P   1.34           H   25.1           G... | Blobrana | 1 |  |  |